Theta_e
314 313 314 314 313 311 307 302 302 301 300 299 299 299 299 299 300 301 304 305 309 312 315 316 317 319 320 319 322 325 323 320 321 319 319 322 322 323 324 324 325 327 327
312 310 311 311 309 306 302 302 301 300 300 299 298 298 298 299 300 301 303 306 307 310 312 313 315 316 318 320 319 318 317 321 317 314 318 317 317 318 320 321 322 322 320
310 308 308 308 305 302 301 300 299 299 298 297 297 297 298 298 299 299 300 304 309 309 312 312 314 317 317 315 318 315 319 317 313 313 316 314 314 315 317 317 318 318 318
309 306 306 304 302 300 299 299 298 297 297 297 296 297 297 298 297 298 299 301 303 302 303 306 309 310 311 311 310 319 315 312 313 314 312 312 314 316 317 317 316 315 316
307 305 304 303 300 298 298 298 297 297 296 296 296 296 297 298 296 296 297 297 296 297 299 301 302 303 305 310 313 312 312 311 311 310 311 313 312 311 312 313 314 315 315
305 304 302 302 299 298 297 297 296 296 297 296 292 294 296 296 296 296 295 294 295 295 296 297 300 301 304 307 309 310 311 310 310 310 308 308 308 309 310 311 311 312 313
305 303 302 300 298 297 297 297 296 294 294 295 295 293 293 294 295 294 295 294 294 294 294 296 297 300 303 305 308 310 310 308 306 305 305 305 306 307 307 308 309 310 311
304 302 302 300 298 297 297 296 295 294 295 294 295 295 291 291 293 293 293 292 292 293 293 293 295 296 300 304 302 303 304 303 303 303 303 302 303 304 305 306 306 307 308
304 302 301 300 298 298 296 296 296 296 294 293 295 297 292 293 292 292 292 291 291 292 293 293 293 295 300 298 296 296 296 297 298 299 300 301 301 302 303 304 305 305 306
302 301 301 299 299 297 297 297 296 297 298 293 292 291 293 296 293 288 291 291 291 290 291 292 293 294 297 293 293 291 292 293 294 295 296 297 298 300 301 302 303 303 304
301 300 299 298 298 297 297 296 295 295 296 297 295 291 291 291 292 294 289 288 290 290 290 291 292 294 294 292 291 289 289 291 291 292 293 294 295 297 299 300 301 302 302
298 298 298 298 297 296 296 295 295 295 295 295 296 294 293 291 290 291 291 289 288 288 289 290 292 293 292 291 287 285 286 287 289 290 290 291 292 294 295 297 299 300 300
295 296 296 296 296 296 295 295 294 294 294 294 295 294 294 294 293 293 293 289 287 287 287 290 291 293 290 289 288 284 283 285 287 288 289 289 290 291 293 295 296 297 297
296 296 295 295 295 295 294 294 293 293 293 293 293 294 293 293 292 292 292 289 285 285 286 287 289 290 290 288 285 282 285 282 285 286 287 288 289 290 292 293 293 294 295
295 296 294 293 294 294 293 293 291 291 291 291 292 293 292 292 291 292 292 293 292 285 284 286 286 290 288 287 285 285 284 282 284 284 285 286 288 290 290 291 292 292 293
293 293 293 292 293 293 292 291 291 291 290 290 290 290 290 290 290 290 290 290 291 292 288 288 287 288 287 285 284 283 283 281 283 283 284 286 287 288 288 289 290 291 292
291 291 291 291 291 291 291 290 290 290 288 289 288 288 288 289 288 288 288 288 287 289 289 283 286 287 286 284 281 282 283 283 284 282 283 285 287 286 287 287 288 289 290
291 290 290 289 289 289 289 289 288 288 287 287 287 286 286 285 287 287 287 286 286 286 287 281 281 282 281 282 282 281 281 281 283 282 283 285 286 285 285 286 287 288 288
288 289 289 288 288 288 287 287 288 287 286 287 287 285 285 284 284 285 285 285 285 282 284 284 279 281 280 281 279 280 281 282 282 282 283 283 284 284 285 286 286 286 286
288 287 288 288 287 287 286 287 286 286 286 286 287 285 284 283 284 284 283 284 284 283 282 281 281 278 278 279 280 280 279 281 281 281 282 282 283 283 284 284 284 284 283
286 287 286 286 287 286 285 286 285 285 285 285 285 284 284 284 285 285 283 283 283 282 281 280 278 278 277 276 277 280 279 280 282 282 282 283 282 282 282 283 282 283 283
284 285 284 284 285 284 287 288 286 284 284 283 284 284 283 283 284 286 287 286 283 281 280 280 278 277 277 278 279 278 278 277 279 282 281 280 281 280 281 282 283 282 283
283 282 283 284 284 285 287 288 287 285 284 284 283 283 282 282 282 282 285 285 284 284 284 281 279 278 278 279 280 278 278 278 278 280 279 276 280 279 281 280 282 282 283
281 281 282 283 283 284 286 287 287 285 284 284 283 283 282 281 281 281 281 281 281 281 281 280 281 280 281 281 280 280 279 279 279 278 277 273 279 278 280 280 282 282 282
280 280 281 282 283 283 285 286 286 285 284 284 283 283 283 282 282 284 281 280 279 279 282 281 281 282 282 282 281 280 277 275 274 274 276 275 276 276 277 278 280 281 281
278 280 280 281 282 282 284 285 285 285 284 284 284 282 283 282 283 284 281 280 278 278 277 277 278 281 281 280 281 280 278 274 274 272 275 273 275 274 273 277 278 278 278
Wind_Speed
11 10 10 9 9 8 7 7 6 5 4 4 3 3 3 2 2 1 1 4 4 2 3 4 4 6 6 5 8 13 13 11 14 12 10 12 15 15 11 12 12 14 15
11 11 11 10 9 8 7 6 6 6 5 4 4 2 2 2 2 2 2 4 4 3 2 4 5 6 8 10 7 9 9 14 13 9 11 11 12 11 11 13 13 15 14
14 13 11 10 9 8 9 7 6 5 5 4 4 3 2 2 3 3 4 3 6 12 8 4 3 7 8 6 10 5 12 12 9 8 11 12 9 8 10 8 11 12 13
16 14 11 10 10 8 8 8 7 6 5 5 4 4 3 4 4 4 4 4 3 3 6 9 8 7 6 5 5 9 10 9 8 11 10 8 8 9 10 11 10 11 11
17 13 11 10 12 9 9 8 8 8 7 6 4 4 3 3 3 3 5 5 5 3 4 7 10 9 4 4 7 7 8 8 9 8 8 10 10 8 9 9 10 11 12
17 14 11 12 12 10 10 9 10 7 7 7 5 4 4 3 3 4 5 4 4 4 4 3 1 4 5 6 6 7 8 9 10 11 9 9 9 9 9 9 9 11 12
19 16 11 12 13 12 12 13 9 11 6 8 7 4 4 3 5 5 5 4 5 4 3 3 2 2 5 7 8 10 10 9 9 9 8 9 9 10 10 10 11 11 12
18 16 15 14 16 11 14 14 13 8 5 10 6 5 5 4 4 4 4 4 5 3 4 3 5 5 5 7 9 11 10 9 8 8 8 8 8 9 9 9 9 10 11
16 15 17 14 14 13 12 15 14 14 9 9 9 3 4 4 7 5 6 4 4 3 3 4 5 6 6 7 6 9 8 7 8 8 9 10 10 10 9 10 10 11 11
16 16 15 15 14 11 13 13 11 11 9 10 6 6 3 1 5 5 5 6 5 4 4 4 5 6 7 5 9 8 7 8 8 9 10 9 9 9 10 10 10 11 12
16 16 16 15 13 12 13 14 14 14 10 9 7 5 4 3 2 2 5 7 5 5 3 4 5 6 6 4 4 7 8 8 7 8 8 9 9 10 10 10 10 11 12
10 15 14 14 13 13 14 14 15 16 12 10 9 9 8 6 7 4 3 6 8 6 5 5 6 6 5 4 5 4 6 5 4 5 6 6 7 7 8 9 10 12 13
9 13 16 14 13 14 13 12 14 15 15 12 12 10 8 7 4 6 5 5 4 4 5 6 7 7 6 4 3 4 3 6 5 6 5 5 5 5 6 9 10 11 12
9 12 15 15 16 14 13 13 10 10 12 12 14 11 9 8 7 7 6 8 5 4 5 6 8 8 7 5 4 1 2 3 6 5 5 6 7 6 7 9 10 11 12
7 10 13 16 16 15 16 15 12 14 13 13 13 11 9 7 7 7 6 7 7 8 10 10 7 11 8 7 5 4 5 5 7 5 4 5 7 8 9 10 10 10 11
8 9 12 14 15 15 15 16 14 14 14 12 10 13 11 8 9 8 7 6 5 6 6 6 11 11 11 7 8 6 6 5 9 7 6 6 7 7 6 7 9 11 11
9 10 10 11 14 15 15 16 17 16 17 16 13 14 15 12 9 9 8 8 7 6 5 4 7 9 13 11 8 7 6 6 5 8 8 8 9 7 7 8 9 11 12
10 11 11 12 12 14 15 17 17 15 17 18 16 14 15 9 13 12 9 12 9 9 5 9 9 9 9 11 8 8 6 5 6 6 9 11 10 9 9 10 11 13 14
9 11 11 14 12 14 15 17 18 18 17 18 18 18 16 14 14 10 11 11 9 7 8 6 6 7 5 8 8 8 8 8 6 7 10 10 11 10 10 13 13 13 13
12 9 12 14 13 13 15 16 17 18 18 17 18 18 20 21 20 16 13 12 10 10 9 8 7 8 8 8 8 8 9 8 6 5 7 8 9 11 15 16 15 14 13
11 13 10 12 14 13 11 16 16 17 18 17 18 19 19 19 25 23 14 15 13 11 10 8 8 7 8 7 11 7 7 4 4 4 4 3 5 6 7 11 12 14 12
11 11 12 13 14 11 19 23 20 15 17 18 19 19 17 19 23 27 28 26 22 18 15 11 10 10 12 10 9 8 5 3 2 4 4 5 5 7 7 8 14 14 16
11 11 11 11 15 16 23 24 27 17 16 18 20 18 16 14 20 20 29 27 27 29 24 17 16 14 12 12 12 11 9 6 4 4 2 8 6 8 7 8 15 15 16
12 12 12 12 13 12 25 26 25 18 18 20 20 20 20 20 21 22 20 19 18 18 19 12 11 10 8 11 12 9 9 7 3 4 4 5 4 6 6 8 17 16 14
15 14 13 14 15 14 22 24 22 15 18 20 17 19 20 21 25 32 21 21 18 15 20 20 13 13 14 18 13 9 8 8 5 4 7 5 5 6 8 8 8 11 12
16 14 17 15 17 18 22 23 21 12 16 14 16 18 24 24 28 35 22 20 19 19 17 15 12 14 15 15 18 11 9 9 6 3 7 5 4 3 4 5 6 6 7
Wind_Direction
187 184 189 186 185 181 180 178 169 164 149 139 137 145 131 109 107 115 107 352 353 18 135 127 130 114 100 111 100 94 86 81 72 60 63 53 40 40 51 48 45 45 38
189 189 186 189 185 186 181 177 170 167 165 159 147 135 114 101 101 128 124 91 23 1 95 110 126 128 140 107 102 81 93 91 71 57 66 55 37 36 46 47 50 47 34
191 189 188 188 185 181 176 169 168 170 164 155 146 153 149 140 142 143 148 150 110 46 53 74 99 95 93 122 90 106 107 80 72 85 71 57 41 43 45 52 53 42 32
192 191 188 189 179 178 178 177 175 170 172 174 166 168 168 157 145 124 128 137 111 101 68 38 51 70 80 92 122 90 91 87 81 68 67 63 63 54 46 45 36 27 23
194 191 192 186 175 179 185 182 177 178 174 174 162 145 131 137 143 132 120 106 95 97 99 65 48 36 58 56 76 105 105 95 87 83 78 65 51 42 37 30 29 26 23
192 194 192 183 180 179 182 184 178 179 179 158 141 122 113 131 161 150 134 115 91 98 94 102 104 64 38 85 88 98 96 91 75 59 54 51 46 39 31 25 22 23 17
190 191 191 186 186 185 185 183 174 170 161 161 136 121 118 148 173 160 148 134 122 109 102 102 131 119 94 104 100 89 79 73 67 55 48 42 36 31 23 17 10 8 8
196 192 187 185 186 184 187 186 179 173 164 183 180 154 173 175 179 175 163 139 126 122 121 119 124 134 148 94 71 65 55 50 49 47 40 34 28 24 16 10 7 3 2
206 201 197 187 185 187 186 187 188 179 170 189 215 214 163 205 154 179 191 173 151 149 145 142 139 138 139 112 105 77 54 48 43 30 27 21 15 12 10 3 2 1 359
220 214 206 197 191 192 192 189 188 192 181 176 190 220 240 125 186 163 197 200 200 182 164 163 149 146 137 116 92 60 50 38 29 24 16 14 12 8 4 2 360 360 359
216 212 212 208 202 196 195 190 189 194 198 187 187 166 197 192 244 173 157 176 203 192 174 179 169 162 155 139 95 61 37 28 19 13 8 7 4 1 358 355 355 356 356
216 217 208 205 206 206 201 193 191 196 195 201 197 191 178 174 188 176 149 162 181 178 174 176 181 174 168 142 86 67 30 15 5 360 0 1 356 356 350 353 356 356 353
214 216 212 215 208 207 211 208 199 197 197 198 196 197 200 203 179 188 170 139 165 159 180 195 185 176 175 175 98 7 29 350 333 338 339 340 341 345 346 349 352 354 351
224 218 210 210 211 211 212 208 214 216 206 204 201 203 195 193 187 184 165 154 158 164 182 173 189 188 180 182 97 234 271 291 307 317 321 330 328 330 338 345 350 349 345
255 230 215 218 216 210 204 206 208 206 208 209 210 200 202 195 194 192 187 175 165 177 197 186 180 192 185 178 170 222 240 208 263 258 280 300 308 319 333 336 337 337 337
246 228 228 224 224 217 209 204 215 208 205 208 206 202 200 193 193 192 191 190 209 185 182 161 199 178 185 192 172 222 241 261 248 255 269 270 271 297 318 323 321 322 326
263 246 232 222 222 220 218 213 216 216 206 206 206 207 205 192 193 192 190 188 191 193 167 160 179 175 183 195 195 210 231 239 234 226 255 273 282 294 298 299 304 313 318
295 270 255 241 225 222 220 221 219 216 210 206 201 207 211 192 199 192 190 186 188 188 176 165 179 181 196 198 201 212 223 237 243 237 250 259 268 274 290 302 309 309 316
294 281 271 254 237 232 226 223 221 220 224 217 202 197 199 194 204 195 195 187 180 170 189 172 154 179 180 192 207 210 219 225 226 225 253 258 260 280 291 297 296 301 311
317 285 264 260 249 242 234 230 229 228 221 219 221 207 200 194 199 199 195 193 181 174 178 180 173 176 187 177 200 204 202 211 206 197 231 241 276 286 291 294 299 305 309
326 311 285 263 258 247 241 236 228 228 227 223 221 213 210 207 204 197 190 187 179 180 177 183 189 180 189 177 197 185 207 216 224 215 240 245 296 297 294 294 287 286 300
326 322 309 287 275 258 251 243 237 228 227 224 223 222 212 201 204 202 201 194 187 181 185 184 188 198 195 195 179 178 176 196 184 153 195 255 259 264 260 261 273 288 291
312 305 284 271 271 265 257 249 239 230 229 226 224 219 213 209 203 199 202 200 199 200 194 188 189 194 189 186 172 176 179 187 189 136 186 279 237 239 244 254 266 270 271
303 300 295 283 268 264 262 256 245 238 233 232 229 224 215 207 202 199 192 195 199 199 199 197 206 187 184 171 176 176 175 189 229 257 220 257 249 245 259 262 268 263 256
300 296 291 289 280 270 264 266 257 243 239 240 231 233 221 218 205 202 196 195 190 194 197 194 197 180 168 168 166 152 171 169 210 223 189 237 248 258 265 252 251 238 246
289 287 286 279 273 270 264 261 258 248 243 237 232 233 229 217 202 204 198 193 194 186 175 175 182 181 178 178 179 179 178 184 189 199 194 205 228 230 256 225 234 261 265